TimeEST,TemperatureF,Dew PointF,Humidity,Sea Level PressureIn,VisibilityMPH,Wind Direction,Wind SpeedMPH,Gust SpeedMPH,PrecipitationIn,Events,Conditions,WindDirDegrees,DateUTC
12:54 AM,37.9,21.9,53,29.81,10.0,South,10.4,-,N/A,,Overcast,190,2014-01-27 05:54:00
1:54 AM,39.9,21.9,49,29.79,10.0,South,10.4,-,N/A,,Overcast,190,2014-01-27 06:54:00
2:54 AM,41.0,24.1,51,29.79,10.0,South,9.2,-,N/A,,Overcast,190,2014-01-27 07:54:00
3:54 AM,41.0,25.0,53,29.78,10.0,South,10.4,-,N/A,,Overcast,190,2014-01-27 08:54:00
4:54 AM,39.0,25.0,57,29.78,10.0,South,10.4,-,N/A,,Overcast,180,2014-01-27 09:54:00
5:54 AM,39.0,26.1,60,29.78,10.0,SSW,8.1,-,N/A,,Overcast,200,2014-01-27 10:54:00
6:54 AM,37.9,26.1,62,29.77,10.0,SSW,10.4,-,N/A,,Overcast,200,2014-01-27 11:54:00
7:54 AM,37.9,27.0,65,29.78,10.0,SSW,9.2,-,N/A,,Overcast,200,2014-01-27 12:54:00
8:54 AM,42.1,28.0,58,29.78,10.0,SSW,10.4,-,N/A,,Mostly Cloudy,200,2014-01-27 13:54:00
9:54 AM,46.0,28.9,51,29.78,10.0,SSW,9.2,-,N/A,,Mostly Cloudy,200,2014-01-27 14:54:00
10:54 AM,54.0,30.9,41,29.79,10.0,WSW,10.4,19.6,N/A,,Scattered Clouds,240,2014-01-27 15:54:00
11:54 AM,57.9,30.9,36,29.77,10.0,WSW,10.4,-,N/A,,Scattered Clouds,240,2014-01-27 16:54:00
12:54 PM,60.1,32.0,35,29.75,10.0,WSW,8.1,-,N/A,,Mostly Cloudy,240,2014-01-27 17:54:00
1:54 PM,62.1,30.9,31,29.75,10.0,West,11.5,20.7,N/A,,Mostly Cloudy,260,2014-01-27 18:54:00
2:54 PM,63.0,30.9,30,29.76,10.0,WNW,16.1,24.2,N/A,,Mostly Cloudy,290,2014-01-27 19:54:00
3:47 PM,50.0,30.2,47,29.79,10.0,NNE,16.1,24.2,N/A,,Overcast,30,2014-01-27 20:47:00
3:54 PM,48.9,28.9,46,29.82,10.0,NNE,17.3,24.2,N/A,,Overcast,20,2014-01-27 20:54:00
4:01 PM,48.2,28.4,46,29.81,10.0,North,17.3,-,N/A,,Overcast,10,2014-01-27 21:01:00
4:54 PM,44.1,23.0,43,29.89,10.0,NNE,15.0,-,N/A,,Mostly Cloudy,30,2014-01-27 21:54:00
5:54 PM,39.9,19.0,43,29.94,10.0,NNE,18.4,24.2,N/A,,Mostly Cloudy,20,2014-01-27 22:54:00
6:54 PM,34.0,12.9,42,30.01,10.0,NNE,13.8,19.6,N/A,,Scattered Clouds,20,2014-01-27 23:54:00
7:54 PM,30.9,8.1,38,30.05,10.0,North,12.7,-,N/A,,Scattered Clouds,10,2014-01-28 00:54:00
8:54 PM,30.0,7.0,38,30.09,10.0,North,11.5,-,N/A,,Scattered Clouds,10,2014-01-28 01:54:00
9:54 PM,28.9,6.1,38,30.11,10.0,North,10.4,-,N/A,,Scattered Clouds,10,2014-01-28 02:54:00
10:54 PM,28.0,5.0,38,30.14,10.0,North,9.2,-,N/A,,Scattered Clouds,10,2014-01-28 03:54:00
11:54 PM,27.0,3.9,37,30.17,10.0,North,9.2,18.4,N/A,,Partly Cloudy,10,2014-01-28 04:54:00